Location: Izdebno
(52.6670°N, 16.2170°E)
Time: 02:11:25
(UTC+02:00)

Tiros 1 - Pass Details

Date: 02 March 2024
Orbit: 625 x 657 km, 48.4° (Epoch: 16 April)

Event Time Altitude Azimuth Distance (km) Brightness Sun altitude
Rises 20:27:27 0° 250° (WSW) 2,973 11.2 -26.1°
Reaches altitude 10° 20:29:51 10° 244° (WSW) 2,066 10.2 -26.4°
Enters shadow 20:32:50 34° 221° (SW) 1,079 8.3 -26.8°
